Location: Wapato
(46.4478°N, 120.4212°W)
Time: 23:37:20
(UTC+00:00)

Vanguard 1 Rocket - Pass Details

Date: 12 May 2026
Orbit: 656 x 4211 km, 34.3° (Epoch: 7 June)

Event Time Altitude Azimuth Distance (km) Brightness Sun altitude
Rises 05:01:58 0° 276° (W) 6,506 12.6 -14.2°
Reaches altitude 10° 05:06:00 10° 269° (W) 5,898 12.1 -14.7°
Maximum altitude 05:24:06 42° 208° (SSW) 4,966 10.9 -16.7°
Enters shadow 05:41:05 20° 156° (SSE) 6,490 11.1 -18.4°
